Home > Time Zones > World Clock > Weather > France > Lens > Past weeks

Flag for France Weather past 2 weeks in Lens, France

Now
54 °F

Passing clouds.


Feels Like: 48 °F
Forecast: 42 / 54 °F
Wind: 20 mph from Southwest

Location: Lille Airport

Current Time: Dec 18, 2014 at 9:27:07 PM

Latest Report: Dec 18, 2014 at 9:00 PM


Visibility: N/A

Pressure: 29.98 "Hg

Humidity: 94%

Dew point: 52 °F

Location of LensLocation

Historic Weather in Lens — Graph

°F

Lens temperature yesterday

Maximum temperature yesterday: 54 °F (at 1:30 PM)
Minimum temperature yesterday: 37 °F (at 12:00 AM)
Average temperature yesterday: 47 °F

Past Weeks' High & Low Weather Summary

 TemperatureHumidityPressure
High55 °F (Dec 18, 12:00 PM)100% (Dec 3, 10:30 PM)30.39 "Hg (Dec 3, 10:30 PM)
Low28 °F (Dec 14, 5:00 AM)58% (Dec 10, 2:00 PM)29.42 "Hg (Dec 12, 12:30 PM)
Average41 °F91%29.98 "Hg
* Reported Dec 3 8:00 PM — Dec 18 8:30 PM, Lens, Weather by CustomWeather, © 2014

Note: Actual official high and low records may vary slightly from our data, if they occured in-between our weather recording intervals... More about our weather records

Advertising

Lens weather history for previous 24 hours

 ConditionsComfort  
Time TempWeatherWind HumidityBarometerVisibility
8:30 PM
Dec 18
54 °FPassing clouds.17 mph94%29.98 "HgN/A
8:00 PM54 °FPassing clouds.16 mph94%29.98 "HgN/A
7:30 PM54 °FPassing clouds.17 mph94%29.98 "HgN/A
7:00 PM54 °FPassing clouds.22 mph94%29.98 "HgN/A
6:30 PM54 °FPassing clouds.22 mph94%29.98 "HgN/A
6:00 PM54 °FPassing clouds.24 mph94%29.98 "HgN/A
5:30 PM54 °FPassing clouds.21 mph88%29.95 "HgN/A
5:00 PM54 °FPassing clouds.25 mph88%29.95 "HgN/A
4:30 PM54 °FPartly sunny.23 mph94%29.95 "HgN/A
4:00 PM54 °FPartly sunny.24 mph88%29.95 "HgN/A
3:30 PM54 °FPartly sunny.21 mph94%29.95 "HgN/A
3:00 PM54 °FOvercast.24 mph94%29.95 "HgN/A
2:30 PM54 °FOvercast.24 mph94%29.95 "HgN/A
2:00 PM55 °FLow clouds.24 mph88%29.95 "HgN/A
1:30 PM55 °FLow clouds.24 mph88%29.92 "HgN/A
1:00 PM55 °FOvercast.22 mph94%29.92 "HgN/A
12:30 PM55 °FLow clouds.21 mph94%29.92 "HgN/A
12:00 PM55 °FLow clouds.18 mph94%29.92 "HgN/A
11:30 AM54 °FDrizzle. Low clouds.20 mph100%29.92 "Hg5 mi
11:00 AM54 °FDrizzle. Low clouds.17 mph100%29.92 "Hg5 mi
10:30 AM54 °FLow clouds.16 mph94%29.92 "Hg5 mi
10:00 AM54 °FDrizzle. Low clouds.16 mph94%29.92 "Hg2 mi
9:30 AM54 °FDrizzle. Low clouds.15 mph94%29.89 "Hg2 mi
9:00 AM54 °FDrizzle. Low clouds.14 mph94%29.89 "Hg3 mi
8:00 AM54 °FDrizzle. Low clouds.15 mph94%29.89 "Hg2 mi
7:30 AM54 °FDrizzle. Low clouds.14 mph94%29.86 "Hg4 mi
7:00 AM54 °FDrizzle. Low clouds.15 mph94%29.86 "HgN/A
6:30 AM54 °FLow clouds.13 mph100%29.86 "HgN/A
6:00 AM54 °FDrizzle. Low clouds.14 mph94%29.86 "HgN/A
5:30 AM54 °FDrizzle. Low clouds.10 mph94%29.86 "Hg5 mi
4:30 AM54 °FDrizzle. Low clouds.9 mph94%29.86 "Hg4 mi
4:00 AM52 °FLight rain. Low clouds.9 mph100%29.83 "Hg4 mi
3:30 AM52 °FLow clouds.9 mph100%29.86 "HgN/A
3:00 AM52 °FDrizzle. Low clouds.9 mph100%29.86 "Hg4 mi
2:30 AM52 °FLow clouds.9 mph100%29.83 "Hg5 mi
2:00 AM52 °FDrizzle. Mostly cloudy.12 mph100%29.83 "Hg4 mi
1:30 AM52 °FDrizzle. Mostly cloudy.9 mph100%29.83 "Hg5 mi
1:00 AM52 °FLight rain. Low clouds.9 mph100%29.83 "Hg5 mi
12:30 AM52 °FPassing clouds.9 mph100%29.83 "Hg5 mi
12:00 AM52 °FLight rain. Passing clouds.10 mph100%29.83 "Hg2 mi
11:30 PM
Dec 17
52 °FLight rain. Passing clouds.9 mph94%29.83 "Hg4 mi
11:00 PM50 °FLight rain. Passing clouds.6 mph94%29.83 "Hg4 mi
10:30 PM50 °FLight rain. Passing clouds.5 mph94%29.83 "Hg4 mi
10:00 PM48 °FPassing clouds.6 mph100%29.83 "Hg5 mi
9:30 PM48 °FPassing clouds.6 mph100%29.83 "Hg5 mi
9:00 PM48 °FPartly cloudy.7 mph94%29.83 "Hg5 mi
Weather by CustomWeather, © 2014

See weather overviewHow to use our weather pages